Temp
13 14 15 14 15 15 15 15 14 13 13 13 13 13 13 13 13 13 13 11 12 12 11 10 10 9 9 9 10 11 11 10 9
12 14 16 15 15 15 15 14 13 13 13 13 13 12 13 13 13 12 12 12 11 10 10 10 9 9 8 8 8 8 8 8 8
12 14 15 15 15 14 14 11 11 12 13 12 12 12 12 12 12 11 12 12 10 10 10 10 9 8 8 8 8 8 8 8 8
12 15 15 14 14 11 10 11 11 12 11 11 12 12 11 11 11 12 12 12 11 11 10 10 8 8 8 8 8 7 7 7 7
13 15 14 13 12 10 11 11 11 11 11 11 11 11 11 11 11 11 11 11 10 10 10 9 8 8 7 7 7 7 7 8 7
14 14 14 13 10 9 10 10 11 10 11 11 11 10 10 11 11 11 11 10 10 9 9 8 8 7 7 8 6 7 6 6 6
13 14 13 11 10 10 10 10 10 10 10 11 11 11 10 10 11 11 10 10 10 8 7 8 7 7 6 7 6 6 5 6 7
13 12 12 10 10 10 10 10 10 10 10 10 10 10 10 10 10 10 10 10 9 7 7 7 6 6 6 6 6 7 8 8 8
12 13 11 10 10 10 11 11 11 10 10 10 10 10 10 10 10 9 8 8 7 7 7 6 7 7 6 6 6 7 7 7 7
13 12 12 10 10 11 11 11 10 10 10 10 10 10 10 10 9 8 7 7 7 7 7 7 6 5 6 7 7 7 7 7 7
13 12 11 11 10 10 11 11 10 10 10 10 9 9 9 9 9 7 7 7 7 7 6 6 6 5 5 7 7 7 7 7 7
13 12 11 11 10 10 10 10 9 9 9 9 9 9 9 8 8 7 6 6 6 6 6 6 6 5 5 5 6 7 7 7 7
11 12 11 11 10 9 9 10 9 9 9 9 9 9 8 8 7 7 7 7 7 8 8 7 7 5 4 5 6 7 6 7 7
10 10 11 10 10 9 9 9 9 9 9 9 8 8 8 7 7 7 6 7 7 7 7 7 7 7 7 6 6 6 6 6 6
9 9 10 10 9 9 9 9 9 9 9 8 7 7 7 7 7 7 6 7 7 7 7 7 6 6 6 6 6 6 6 6 6
8 9 9 9 9 9 9 8 8 8 8 8 6 6 6 6 6 6 6 6 6 7 7 6 6 6 6 6 6 6 5 6 5
11 8 8 8 8 8 8 8 8 8 7 7 6 5 5 5 5 5 6 6 6 6 6 6 6 6 6 5 5 5 5 5 4
8 7 7 7 8 8 8 8 8 8 7 8 8 5 5 4 4 5 5 5 6 6 5 5 5 5 5 5 5 5 4 4 4
8 7 6 7 8 8 8 8 8 8 8 7 8 8 8 5 4 4 4 4 5 5 5 5 4 4 4 4 4 4 4 4 3
7 7 6 6 5 6 7 8 8 8 8 7 7 7 8 7 7 4 4 4 4 4 4 4 3 4 3 3 3 3 3 3 2
Height
1530 1530 1531 1533 1534 1535 1536 1537 1540 1542 1544 1547 1549 1550 1552 1554 1555 1556 1557 1558 1558 1558 1558 1558 1558 1558 1556 1555 1555 1555 1555 1555 1555
1528 1528 1530 1532 1533 1534 1536 1537 1540 1543 1545 1547 1549 1551 1553 1554 1555 1557 1558 1559 1559 1559 1559 1558 1559 1558 1557 1557 1557 1557 1557 1557 1557
1527 1527 1529 1530 1532 1533 1535 1538 1540 1543 1545 1547 1549 1552 1554 1555 1557 1558 1558 1559 1560 1560 1560 1560 1559 1559 1559 1558 1558 1558 1557 1558 1557
1525 1526 1528 1530 1532 1533 1536 1538 1539 1543 1546 1547 1550 1553 1555 1556 1557 1558 1559 1559 1560 1561 1560 1561 1561 1561 1560 1559 1559 1558 1559 1559 1559
1524 1525 1527 1529 1532 1534 1536 1539 1540 1544 1545 1548 1550 1553 1555 1556 1557 1559 1560 1560 1561 1561 1562 1561 1562 1561 1561 1560 1560 1560 1560 1561 1560
1523 1524 1527 1529 1533 1535 1536 1538 1541 1544 1545 1547 1550 1553 1555 1557 1558 1558 1560 1561 1561 1562 1563 1563 1562 1562 1562 1562 1562 1562 1562 1561 1561
1522 1524 1526 1529 1532 1535 1536 1538 1541 1543 1545 1547 1550 1553 1555 1557 1559 1559 1561 1561 1563 1563 1563 1563 1564 1564 1564 1564 1563 1563 1562 1561 1561
1521 1523 1525 1528 1531 1533 1534 1537 1541 1543 1545 1547 1550 1552 1555 1557 1560 1560 1562 1562 1563 1563 1563 1564 1564 1565 1565 1565 1564 1563 1563 1562 1561
1519 1521 1524 1527 1529 1531 1534 1537 1541 1543 1545 1548 1550 1552 1555 1557 1559 1560 1562 1562 1563 1564 1564 1565 1565 1565 1565 1565 1564 1564 1563 1562 1562
1516 1519 1522 1526 1528 1530 1533 1537 1540 1542 1545 1548 1551 1553 1555 1556 1557 1559 1561 1562 1564 1565 1566 1566 1566 1565 1565 1565 1565 1564 1563 1562 1562
1512 1516 1520 1523 1528 1531 1534 1536 1539 1541 1544 1547 1550 1552 1554 1556 1557 1558 1560 1562 1564 1565 1566 1566 1566 1566 1566 1565 1564 1564 1563 1563 1562
1509 1512 1516 1520 1526 1530 1533 1537 1539 1541 1544 1546 1549 1552 1554 1555 1557 1558 1559 1561 1562 1563 1564 1565 1566 1567 1566 1565 1564 1563 1563 1562 1561
1509 1509 1512 1518 1523 1528 1532 1535 1538 1541 1543 1545 1547 1551 1554 1556 1556 1559 1560 1561 1562 1563 1564 1564 1565 1566 1566 1564 1563 1563 1562 1561 1560
1511 1509 1509 1515 1520 1525 1530 1533 1536 1539 1543 1546 1548 1550 1553 1555 1556 1558 1559 1561 1562 1563 1563 1564 1564 1564 1564 1563 1563 1562 1561 1559 1558
1510 1512 1508 1513 1518 1523 1528 1533 1535 1538 1541 1545 1548 1551 1553 1555 1557 1557 1558 1560 1561 1562 1563 1563 1564 1564 1563 1563 1562 1560 1559 1557 1555
1503 1509 1510 1514 1517 1521 1526 1531 1534 1536 1540 1542 1547 1551 1553 1555 1556 1557 1558 1559 1560 1560 1561 1562 1562 1563 1562 1562 1561 1559 1558 1555 1554
1487 1497 1510 1510 1516 1522 1525 1527 1530 1534 1536 1539 1543 1549 1553 1553 1554 1555 1557 1557 1558 1559 1560 1560 1561 1561 1561 1560 1559 1558 1556 1554 1552
1485 1493 1502 1498 1508 1520 1523 1525 1528 1528 1533 1537 1538 1544 1545 1549 1552 1552 1554 1556 1557 1557 1557 1559 1559 1559 1557 1557 1556 1555 1553 1551 1550
1482 1490 1493 1494 1501 1514 1520 1523 1525 1527 1528 1533 1536 1536 1539 1543 1546 1549 1552 1554 1555 1555 1555 1556 1556 1556 1556 1554 1553 1551 1550 1548 1546
1481 1484 1486 1493 1504 1505 1511 1521 1523 1524 1527 1529 1533 1535 1537 1539 1539 1540 1545 1550 1553 1553 1553 1554 1554 1553 1554 1551 1550 1549 1547 1545 1543
Wind_Speed
14 15 14 11 9 9 12 15 18 20 21 20 19 17 16 15 14 14 11 9 9 7 6 7 12 13 12 10 5 3 3 5 7
14 16 13 11 11 12 15 18 19 21 22 22 18 21 16 14 13 11 8 4 7 9 11 12 13 14 15 17 17 16 17 16 16
16 14 13 12 13 14 16 19 20 26 23 22 21 17 14 12 11 9 8 5 12 14 11 14 10 15 15 16 16 16 16 16 16
17 14 14 14 16 17 20 21 25 28 25 22 20 16 12 11 11 8 11 15 16 16 17 9 10 14 15 15 16 15 15 15 15
15 14 15 15 18 19 20 20 28 29 23 20 19 18 13 9 14 18 21 18 18 13 12 9 14 14 14 14 16 15 15 15 14
14 15 16 17 20 19 21 21 31 29 22 22 23 20 13 17 15 18 20 18 14 10 9 13 13 13 15 15 14 14 13 13 12
15 16 17 19 21 22 20 28 33 28 21 23 22 18 19 21 22 24 21 15 10 8 13 14 13 13 14 13 13 13 12 11 11
18 19 20 22 22 22 21 34 33 29 23 22 21 18 18 18 19 17 14 11 9 12 15 15 13 13 13 12 11 10 9 9 9
21 20 21 25 24 22 27 29 30 29 23 22 20 17 15 14 15 20 15 12 14 14 14 14 14 13 10 10 9 8 9 9 8
23 21 22 26 24 22 27 29 31 30 24 20 19 16 13 11 14 17 17 16 15 14 14 14 11 11 9 7 7 7 7 8 8
24 23 23 25 23 25 27 31 33 28 25 20 18 15 12 11 19 20 20 18 16 16 14 12 11 10 8 6 5 5 6 7 7
26 24 25 26 24 28 28 34 30 26 23 20 18 15 12 13 18 20 20 22 20 14 12 11 9 9 8 7 5 5 6 7 9
27 26 26 27 28 30 29 33 29 26 24 22 20 17 13 14 17 18 16 14 12 10 9 8 7 8 7 4 5 6 7 9 11
29 26 26 30 32 32 29 29 28 28 26 23 20 17 15 13 16 18 15 13 11 9 8 6 5 3 1 4 7 9 11 12 13
32 25 28 31 33 32 30 30 30 29 28 25 21 18 13 12 14 17 15 14 12 10 8 6 4 3 4 6 8 10 11 12 13
29 24 26 27 30 31 30 32 32 30 29 30 24 19 13 11 12 13 13 13 11 10 8 7 6 5 7 8 9 11 12 13 15
31 27 30 25 27 30 32 35 36 33 32 31 29 18 17 15 13 13 13 13 12 11 10 8 7 7 9 11 11 12 13 15 16
37 43 39 26 26 31 34 35 37 39 37 32 21 14 10 22 17 15 14 13 13 12 11 8 8 9 10 11 13 13 15 17 18
39 41 38 33 37 34 34 35 37 38 39 38 29 14 12 15 15 20 17 14 13 12 10 9 10 10 12 13 14 15 17 18 19
40 39 37 36 33 34 34 37 37 37 38 38 36 22 12 16 13 20 25 20 15 13 11 11 11 11 13 14 16 17 20 20 19
Wind_Direction
182 202 210 207 219 191 167 158 153 154 153 150 145 142 151 145 153 152 145 129 119 122 119 110 100 94 86 82 89 100 100 86 81
182 203 204 203 193 176 163 153 152 152 151 148 156 148 154 159 158 163 161 161 122 118 111 112 113 97 86 84 82 81 80 78 76
189 200 190 188 178 173 160 147 161 149 155 153 156 156 158 161 164 172 176 191 134 120 114 121 120 92 88 90 89 89 88 81 78
195 196 181 181 173 163 154 155 156 157 158 158 155 161 167 177 185 179 152 137 132 129 122 127 102 98 98 89 86 85 83 79 76
194 188 183 178 165 166 159 159 157 157 161 161 155 160 158 140 137 120 132 138 131 149 145 131 108 100 95 88 82 81 79 81 83
193 185 183 173 162 161 169 168 154 160 167 160 162 160 155 142 145 142 140 143 145 148 140 122 113 101 92 92 86 83 80 76 73
190 187 181 168 167 170 172 160 160 162 167 166 172 175 161 149 143 135 139 141 162 137 130 114 106 101 96 93 89 82 77 72 68
195 186 179 169 173 174 179 161 166 171 173 169 170 174 173 179 168 166 170 191 181 138 119 114 111 101 97 93 84 76 66 61 57
200 194 184 178 178 179 163 163 166 173 179 179 176 183 183 188 193 193 181 166 143 132 123 116 109 106 98 89 78 67 61 56 47
201 194 189 185 189 171 167 166 167 175 180 177 185 185 188 187 177 153 151 142 137 130 122 118 113 104 97 84 71 60 52 42 33
204 197 193 189 189 172 170 166 167 176 182 177 181 187 188 182 174 158 153 145 147 137 131 124 116 108 93 81 63 39 24 16 8
206 199 196 190 182 172 169 169 171 173 178 177 176 186 188 181 181 168 162 155 159 159 132 128 121 110 95 78 44 20 6 356 349
206 199 198 188 180 177 175 176 179 183 186 179 179 184 183 181 186 180 170 176 177 169 155 150 136 117 111 60 3 354 348 344 342
214 205 196 187 183 180 181 180 187 185 187 184 177 179 181 185 187 183 188 185 186 183 172 169 172 189 278 320 331 341 342 340 339
217 213 191 185 182 185 186 186 188 190 186 173 168 172 184 186 188 195 198 200 198 193 194 199 213 259 292 319 327 330 332 332 330
200 203 193 191 190 191 190 188 190 187 187 170 162 164 178 196 196 195 196 199 203 206 212 224 246 278 307 319 322 323 322 324 325
223 202 200 200 200 198 198 196 187 190 186 180 166 153 166 188 201 211 216 218 217 218 225 238 269 296 308 314 312 319 325 327 325
198 198 205 191 211 209 206 204 204 193 194 200 184 160 190 185 201 213 222 224 223 225 234 253 274 288 296 306 317 321 325 326 322
200 197 198 192 196 210 213 213 214 210 200 198 203 197 199 182 188 205 211 219 227 234 242 260 281 296 307 311 316 320 322 320 316
215 216 209 196 206 200 213 216 217 215 213 207 206 211 210 200 190 196 202 209 218 233 247 267 282 297 300 308 314 316 319 318 316